Location: Go�ngahuizen
(53.0821°N, 5.8849°E)
Time: 15:15:10
(UTC+00:00)

Cosmos 1818 - Pass Details

Date: 09 April 2020
Orbit: 778 x 796 km, 65.0° (Epoch: 02 June)

Event Time Altitude Azimuth Distance (km) Brightness Sun altitude
Rises 19:36:52 0° 232° (SW) 3,277 7.1 -10.6°
Reaches altitude 10° 19:39:18 10° 236° (SW) 2,353 6.4 -10.9°
Maximum altitude 19:44:41 66° 318° (NW) 867 4.0 -11.6°
Drops below altitude 10° 19:50:08 10° 41° (NE) 2,374 5.9 -12.3°
Sets 19:52:36 0° 45° (NE) 3,308 6.7 -12.6°
